Aktion, Greece

3:42 PM EET on December 16, 2017 (GMT +0200)
Aktion Air Base

Weather History for LGPZ - October, 2013

Change the Weather History Date:

Sunday, October 20, 2013

  Actual Average Record
Temperature  
Mean Temperature 64 °F -  
Max Temperature 74 °F 66 °F 79 °F (2012)
Min Temperature 55 °F 53 °F 51 °F (2006)
Growing Degree Days 14 (Base 50)    
Moisture  
Dew Point 54 °F    
Average Humidity 68    
Maximum Humidity 88    
Minimum Humidity 36    
Precipitation  
Precipitation 0.00 in - - ()
Sea Level Pressure  
Sea Level Pressure 30.37 in    
Wind  
Wind Speed 5 mph ()    
Max Wind Speed 10 mph    
Max Gust Speed -    
Visibility 6.2 miles    
Events      
Averages and records for this station are not official NWS values.
T = Trace of Precipitation, MM = Missing Value Source: Averaged Metar Reports

Daily Weather History Graph

Daily Weather History Graph

Search for Another Location

Airport or City:

Trip Planner

Search our weather history database for the weather conditions in past years. The results will help you decide how hot, cold, wet, or windy it might be!

Date:

Astronomy

Oct. 20, 2013 Rise Set
Actual Time 7:51 AM EEST 6:51 PM EEST
Civil Twilight 7:24 AM EEST 7:18 PM EEST
Nautical Twilight 6:53 AM EEST 7:49 PM EEST
Astronomical Twilight 6:22 AM EEST 8:20 PM EEST
Moon 7:48 PM EEST (10/20) 9:10 AM EEST (10/20)
Length of Visible Light 11h 54m
Length of Day
11h 00m
Full, 98% of the Moon is Illuminated
Oct 20
Full
Oct 27
Last Quarter
Nov 3
New
Nov 10
First Quarter
Nov 17
Full

Hourly Weather History & Observations

Time (EEST) Temp. Dew Point Humidity Pressure Visibility Wind Dir Wind Speed Gust Speed Precip Events Conditions
12:20 AM 57.2 °F 53.6 °F 88% 30.33 in - Variable 1.2 mph - N/A   Unknown
12:50 AM 60.8 °F 55.4 °F 82% 30.33 in - NE 5.8 mph - N/A   Unknown
1:20 AM 60.8 °F 53.6 °F 77% 30.36 in - NE 5.8 mph - N/A   Unknown
1:50 AM 59.0 °F 51.8 °F 77% 30.36 in - Variable 3.5 mph - N/A   Unknown
2:20 AM 59.0 °F 51.8 °F 77% 30.36 in - NE 4.6 mph - N/A   Unknown
2:50 AM 60.8 °F 53.6 °F 77% 30.36 in - ENE 4.6 mph - N/A   Unknown
3:00 AM 60 °F 53 °F 70% 30.37 in - ENE 4.6 mph - -  
3:20 AM 60.8 °F 51.8 °F 72% 30.36 in - NE 4.6 mph - N/A   Unknown
3:50 AM 59.0 °F 53.6 °F 82% 30.36 in - ENE 4.6 mph - N/A   Unknown
4:20 AM 59.0 °F 53.6 °F 82% 30.36 in - East 4.6 mph - N/A   Unknown
4:50 AM 60.8 °F 50.0 °F 68% 30.36 in - ENE 6.9 mph - N/A   Unknown
5:20 AM 60.8 °F 50.0 °F 68% 30.36 in - NE 6.9 mph - N/A   Unknown
5:50 AM 60.8 °F 51.8 °F 72% 30.36 in - NE 6.9 mph - N/A   Unknown
6:20 AM 60.8 °F 51.8 °F 72% 30.36 in - ENE 8.1 mph - N/A   Clear
6:50 AM 59.0 °F 51.8 °F 77% 30.36 in - ENE 6.9 mph - N/A   Clear
7:20 AM 59.0 °F 51.8 °F 77% 30.36 in - ENE 6.9 mph - N/A   Clear
7:50 AM 59.0 °F 51.8 °F 77% 30.36 in - ENE 8.1 mph - N/A   Clear
8:20 AM 60.8 °F 51.8 °F 72% 30.36 in - ENE 8.1 mph - N/A   Clear
8:50 AM 62.6 °F 50.0 °F 63% 30.39 in - NE 8.1 mph - N/A   Clear
9:00 AM 62 °F 50 °F 56% 30.40 in 6 mi NE 8.1 mph - -   Scattered Clouds
9:20 AM 62.6 °F 51.8 °F 68% 30.39 in - NE 8.1 mph - N/A   Clear
9:50 AM 64.4 °F 51.8 °F 64% 30.39 in - ENE 10.4 mph - N/A   Clear
10:20 AM 64.4 °F 51.8 °F 64% 30.39 in - ENE 10.4 mph - N/A   Clear
10:50 AM 66.2 °F 53.6 °F 64% 30.39 in - ENE 9.2 mph - N/A   Clear
11:20 AM 68.0 °F 53.6 °F 60% 30.42 in - NE 9.2 mph - N/A   Clear
11:50 AM 68.0 °F 53.6 °F 60% 30.42 in - ENE 8.1 mph - N/A   Clear
12:20 PM 69.8 °F 53.6 °F 56% 30.42 in - East 8.1 mph - N/A   Clear
12:50 PM 71.6 °F 53.6 °F 53% 30.39 in 6.2 mi ENE 5.8 mph - N/A   Partly Cloudy
1:20 PM 73.4 °F 51.8 °F 47% 30.39 in 6.2 mi NE 5.8 mph - N/A   Partly Cloudy
1:50 PM 73.4 °F 51.8 °F 47% 30.39 in 6.2 mi NE 4.6 mph - N/A   Partly Cloudy
2:20 PM 73.4 °F 51.8 °F 47% 30.39 in 6.2 mi NE 4.6 mph - N/A   Partly Cloudy
2:50 PM 75.2 °F 53.6 °F 47% 30.39 in 6.2 mi Calm Calm - N/A   Partly Cloudy
3:00 PM 75 °F 53 °F 36% 30.39 in 6 mi Calm Calm - -   Scattered Clouds
3:20 PM 75.2 °F 51.8 °F 44% 30.36 in 6.2 mi WNW 5.8 mph - N/A   Partly Cloudy
3:50 PM 73.4 °F 53.6 °F 50% 30.36 in 6.2 mi WNW 5.8 mph - N/A   Partly Cloudy
4:20 PM 71.6 °F 51.8 °F 50% 30.36 in 6.2 mi NNW 5.8 mph - N/A   Partly Cloudy
4:50 PM 71.6 °F 53.6 °F 53% 30.36 in 6.2 mi NW 6.9 mph - N/A   Partly Cloudy
5:20 PM 71.6 °F 55.4 °F 57% 30.36 in 6.2 mi NW 8.1 mph - N/A   Partly Cloudy
5:50 PM 71.6 °F 55.4 °F 57% 30.36 in 6.2 mi NW 6.9 mph - N/A   Partly Cloudy
6:20 PM 69.8 °F 57.2 °F 64% 30.36 in 6.2 mi NW 6.9 mph - N/A   Partly Cloudy
6:50 PM 66.2 °F 57.2 °F 73% 30.36 in 6.2 mi West 4.6 mph - N/A   Partly Cloudy
7:20 PM 64.4 °F 57.2 °F 77% 30.36 in 6.2 mi West 5.8 mph - N/A   Partly Cloudy
7:50 PM 64.4 °F 57.2 °F 77% 30.36 in 6.2 mi West 4.6 mph - N/A   Partly Cloudy
8:20 PM 64.4 °F 57.2 °F 77% 30.36 in 6.2 mi West 5.8 mph - N/A   Partly Cloudy
8:50 PM 64.4 °F 57.2 °F 77% 30.36 in - West 4.6 mph - N/A   Clear
9:00 PM 64 °F 58 °F 74% 30.37 in 6 mi West 4.6 mph - -  
9:50 PM 64.4 °F 59.0 °F 83% 30.36 in - Calm Calm - N/A   Unknown
10:20 PM 64.4 °F 59.0 °F 83% 30.36 in - Variable 1.2 mph - N/A   Unknown
10:50 PM 60.8 °F 55.4 °F 82% 30.36 in - Variable 1.2 mph - N/A   Unknown
11:20 PM 59.0 °F 55.4 °F 88% 30.36 in - Variable 3.5 mph - N/A   Unknown
11:50 PM 59.0 °F 55.4 °F 88% 30.36 in - Variable 1.2 mph - N/A   Unknown